Location: Habighorst
(52.7089°N, 10.2278°E)
Time: 20:22:39
(UTC+00:00)

Cosmos 1844 Rocket - Pass Details

Date: 13 January 2026
Orbit: 822 x 845 km, 71.0° (Epoch: 16 February)

Event Time Altitude Azimuth Distance (km) Brightness Sun altitude
Exits shadow 05:04:43 30° 320° (NW) 1,478 3.6 -20.3°
Drops below altitude 10° 05:09:38 10° 21° (NNE) 2,476 5.2 -19.6°
Sets 05:12:25 0° 32° (NNE) 3,415 6.1 -19.2°
